Time,TemperatureF,DewpointF,PressureIn,WindDirection,WindDirectionDegrees,WindSpeedMPH,WindSpeedGustMPH,Humidity,HourlyPrecipIn,Conditions,Clouds,dailyrainin,SoftwareType,DateUTC
2013-02-17 00:04:00,17.6,6.1,29.80,WNW,293,0.4,1.1,60,0.00,,,0.00,WUHU216HW,2013-02-17 05:04:00,
2013-02-17 00:09:00,17.6,5.8,29.80,WSW,248,0.4,0.7,59,0.00,,,0.00,WUHU216HW,2013-02-17 05:09:00,
2013-02-17 00:14:00,17.6,5.8,29.81,WNW,293,0.9,0.9,59,0.00,,,0.00,WUHU216HW,2013-02-17 05:14:00,
2013-02-17 00:19:00,17.6,5.8,29.80,NNW,338,0.7,1.1,59,0.00,,,0.00,WUHU216HW,2013-02-17 05:19:00,
2013-02-17 00:24:00,17.5,5.6,29.80,East,90,0.2,1.1,59,0.00,,,0.00,WUHU216HW,2013-02-17 05:24:00,
2013-02-17 00:29:00,17.5,5.6,29.80,WNW,293,0.7,1.3,59,0.00,,,0.00,WUHU216HW,2013-02-17 05:29:00,
2013-02-17 00:34:00,17.3,5.4,29.80,North,0,2.5,2.5,59,0.00,,,0.00,WUHU216HW,2013-02-17 05:34:00,
2013-02-17 00:39:00,17.3,4.6,29.80,ESE,113,0.7,2.5,57,0.00,,,0.00,WUHU216HW,2013-02-17 05:39:00,
2013-02-17 00:44:00,17.1,4.4,29.80,SE,135,0.4,2.5,57,0.00,,,0.00,WUHU216HW,2013-02-17 05:44:00,
2013-02-17 00:49:00,17.1,4.4,29.79,North,0,0.2,2.5,57,0.00,,,0.00,WUHU216HW,2013-02-17 05:49:00,
2013-02-17 00:54:00,16.9,3.9,29.79,North,0,0.4,2.2,56,0.00,,,0.00,WUHU216HW,2013-02-17 05:54:00,
2013-02-17 00:59:00,16.9,4.2,29.79,North,0,0.7,2.2,57,0.00,,,0.00,WUHU216HW,2013-02-17 05:59:00,
2013-02-17 01:04:00,16.9,3.9,29.79,SSW,203,1.8,3.1,56,0.00,,,0.00,WUHU216HW,2013-02-17 06:04:00,
2013-02-17 01:09:00,16.9,3.9,29.79,WNW,293,1.3,3.1,56,0.00,,,0.00,WUHU216HW,2013-02-17 06:09:00,
2013-02-17 01:14:00,16.9,3.4,29.79,WNW,293,1.8,3.1,55,0.00,,,0.00,WUHU216HW,2013-02-17 06:14:00,
2013-02-17 01:19:00,16.7,3.3,29.79,NNE,23,1.8,2.5,55,0.00,,,0.00,WUHU216HW,2013-02-17 06:19:00,
2013-02-17 01:24:00,16.7,3.3,29.79,NW,315,0.4,2.5,55,0.00,,,0.00,WUHU216HW,2013-02-17 06:24:00,
2013-02-17 01:29:00,16.7,3.7,29.80,NE,45,1.1,1.8,56,0.00,,,0.00,WUHU216HW,2013-02-17 06:29:00,
2013-02-17 01:34:00,16.6,3.5,29.81,ESE,113,2.0,2.0,56,0.00,,,0.00,WUHU216HW,2013-02-17 06:34:00,
2013-02-17 01:39:00,16.6,3.2,29.81,NNW,338,0.4,2.0,55,0.00,,,0.00,WUHU216HW,2013-02-17 06:39:00,
2013-02-17 01:44:00,16.6,3.5,29.81,SSW,203,0.4,1.8,56,0.00,,,0.00,WUHU216HW,2013-02-17 06:44:00,
2013-02-17 01:49:00,16.4,3.3,29.81,NNW,338,0.4,1.1,56,0.00,,,0.00,WUHU216HW,2013-02-17 06:49:00,
2013-02-17 01:54:00,16.4,3.3,29.79,WSW,248,0.4,1.1,56,0.00,,,0.00,WUHU216HW,2013-02-17 06:54:00,
2013-02-17 01:59:00,16.2,2.8,29.80,NE,45,0.4,0.7,55,0.00,,,0.00,WUHU216HW,2013-02-17 06:59:00,
2013-02-17 02:04:00,16.2,2.8,29.80,ESE,113,0.2,0.7,55,0.00,,,0.00,WUHU216HW,2013-02-17 07:04:00,
2013-02-17 02:09:00,16.2,2.8,29.80,North,0,0.2,1.1,55,0.00,,,0.00,WUHU216HW,2013-02-17 07:09:00,
2013-02-17 02:14:00,16.2,3.2,29.79,East,90,1.6,1.6,56,0.00,,,0.00,WUHU216HW,2013-02-17 07:14:00,
2013-02-17 02:19:00,16.2,2.8,29.79,SE,135,0.0,1.8,55,0.00,,,0.00,WUHU216HW,2013-02-17 07:19:00,
2013-02-17 02:24:00,16.0,3.0,29.79,NE,45,0.4,2.5,56,0.00,,,0.00,WUHU216HW,2013-02-17 07:24:00,
2013-02-17 02:29:00,16.0,3.0,29.79,NNW,338,0.2,2.5,56,0.00,,,0.00,WUHU216HW,2013-02-17 07:29:00,
2013-02-17 02:34:00,15.8,2.8,29.79,NW,315,0.2,1.6,56,0.00,,,0.00,WUHU216HW,2013-02-17 07:34:00,
2013-02-17 02:39:00,15.8,3.2,29.79,WNW,293,0.4,1.6,57,0.00,,,0.00,WUHU216HW,2013-02-17 07:39:00,
2013-02-17 02:44:00,15.8,3.2,29.79,WNW,293,1.6,1.6,57,0.00,,,0.00,WUHU216HW,2013-02-17 07:44:00,
2013-02-17 02:49:00,15.8,3.2,29.80,WNW,293,0.9,1.6,57,0.00,,,0.00,WUHU216HW,2013-02-17 07:49:00,
2013-02-17 02:54:00,15.7,3.1,29.79,East,90,0.7,1.3,57,0.00,,,0.00,WUHU216HW,2013-02-17 07:54:00,
2013-02-17 02:59:00,15.7,3.1,29.79,ENE,68,0.7,0.7,57,0.00,,,0.00,WUHU216HW,2013-02-17 07:59:00,
2013-02-17 03:04:00,15.7,3.1,29.80,ESE,113,0.4,1.3,57,0.00,,,0.00,WUHU216HW,2013-02-17 08:04:00,
2013-02-17 03:09:00,15.7,3.1,29.80,NNE,23,0.9,1.3,57,0.00,,,0.00,WUHU216HW,2013-02-17 08:09:00,
2013-02-17 03:14:00,15.7,3.4,29.80,North,0,0.4,0.9,58,0.00,,,0.00,WUHU216HW,2013-02-17 08:14:00,
2013-02-17 03:19:00,15.5,3.3,29.81,North,0,1.1,1.6,58,0.00,,,0.00,WUHU216HW,2013-02-17 08:19:00,
2013-02-17 03:24:00,15.5,3.3,29.81,NE,45,0.9,1.6,58,0.00,,,0.00,WUHU216HW,2013-02-17 08:24:00,
2013-02-17 03:29:00,15.5,3.3,29.80,North,0,0.2,0.9,58,0.00,,,0.00,WUHU216HW,2013-02-17 08:29:00,
2013-02-17 03:34:00,15.5,3.3,29.80,NNW,338,0.0,1.1,58,0.00,,,0.00,WUHU216HW,2013-02-17 08:34:00,
2013-02-17 03:39:00,15.5,3.3,29.80,NNW,338,0.4,1.1,58,0.00,,,0.00,WUHU216HW,2013-02-17 08:39:00,
2013-02-17 03:44:00,15.3,3.1,29.80,NNW,338,0.0,0.7,58,0.00,,,0.00,WUHU216HW,2013-02-17 08:44:00,
2013-02-17 03:49:00,15.3,3.1,29.80,SW,225,0.7,1.1,58,0.00,,,0.00,WUHU216HW,2013-02-17 08:49:00,
2013-02-17 03:54:00,15.3,3.1,29.80,ENE,68,0.4,1.6,58,0.00,,,0.00,WUHU216HW,2013-02-17 08:54:00,
2013-02-17 03:59:00,15.3,3.4,29.81,NE,45,1.1,1.6,59,0.00,,,0.00,WUHU216HW,2013-02-17 08:59:00,
2013-02-17 04:04:00,15.3,3.4,29.80,North,0,0.7,1.1,59,0.00,,,0.00,WUHU216HW,2013-02-17 09:04:00,
2013-02-17 04:09:00,15.3,3.4,29.81,North,0,0.4,2.0,59,0.00,,,0.00,WUHU216HW,2013-02-17 09:09:00,
2013-02-17 04:14:00,15.1,3.3,29.81,NNE,23,0.0,2.2,59,0.00,,,0.00,WUHU216HW,2013-02-17 09:14:00,
2013-02-17 04:19:00,15.3,3.4,29.80,WNW,293,1.8,2.2,59,0.00,,,0.00,WUHU216HW,2013-02-17 09:19:00,
2013-02-17 04:24:00,15.1,3.3,29.81,West,270,0.7,2.5,59,0.00,,,0.00,WUHU216HW,2013-02-17 09:24:00,
2013-02-17 04:29:00,15.1,3.3,29.80,NE,45,0.2,2.5,59,0.00,,,0.00,WUHU216HW,2013-02-17 09:29:00,
2013-02-17 04:34:00,15.1,3.3,29.80,NE,45,1.1,2.5,59,0.00,,,0.00,WUHU216HW,2013-02-17 09:34:00,
2013-02-17 04:39:00,15.1,3.3,29.81,ENE,68,0.4,2.5,59,0.00,,,0.00,WUHU216HW,2013-02-17 09:39:00,
2013-02-17 04:44:00,15.1,3.3,29.80,North,0,0.4,1.1,59,0.00,,,0.00,WUHU216HW,2013-02-17 09:44:00,
2013-02-17 04:49:00,15.1,3.7,29.81,NE,45,1.3,1.8,60,0.00,,,0.00,WUHU216HW,2013-02-17 09:49:00,
2013-02-17 04:54:00,15.1,3.7,29.81,North,0,0.7,1.8,60,0.00,,,0.00,WUHU216HW,2013-02-17 09:54:00,
2013-02-17 04:59:00,15.1,3.7,29.82,West,270,1.1,1.1,60,0.00,,,0.00,WUHU216HW,2013-02-17 09:59:00,
2013-02-17 05:04:00,15.1,3.7,29.80,North,0,0.4,1.1,60,0.00,,,0.00,WUHU216HW,2013-02-17 10:04:00,
2013-02-17 05:09:00,15.1,3.3,29.81,WNW,293,0.2,1.3,59,0.00,,,0.00,WUHU216HW,2013-02-17 10:09:00,
2013-02-17 05:14:00,14.9,3.5,29.81,NW,315,0.2,1.3,60,0.00,,,0.00,WUHU216HW,2013-02-17 10:14:00,
2013-02-17 05:19:00,14.9,3.5,29.82,NNE,23,0.7,1.1,60,0.00,,,0.00,WUHU216HW,2013-02-17 10:19:00,
2013-02-17 05:24:00,14.9,3.2,29.81,WNW,293,0.4,1.1,59,0.00,,,0.00,WUHU216HW,2013-02-17 10:24:00,
2013-02-17 05:29:00,15.1,3.7,29.81,North,0,1.1,1.3,60,0.00,,,0.00,WUHU216HW,2013-02-17 10:29:00,
2013-02-17 05:34:00,15.1,3.7,29.82,NNE,23,0.7,1.8,60,0.00,,,0.00,WUHU216HW,2013-02-17 10:34:00,
2013-02-17 05:39:00,15.1,3.7,29.82,North,0,1.1,2.0,60,0.00,,,0.00,WUHU216HW,2013-02-17 10:39:00,
2013-02-17 05:44:00,15.1,3.7,29.83,WSW,248,1.1,2.0,60,0.00,,,0.00,WUHU216HW,2013-02-17 10:44:00,
2013-02-17 05:49:00,15.1,3.7,29.84,NE,45,0.9,1.1,60,0.00,,,0.00,WUHU216HW,2013-02-17 10:49:00,
2013-02-17 05:54:00,15.1,3.7,29.83,NE,45,1.3,2.2,60,0.00,,,0.00,WUHU216HW,2013-02-17 10:54:00,
2013-02-17 05:59:00,15.1,3.7,29.84,North,0,0.4,2.7,60,0.00,,,0.00,WUHU216HW,2013-02-17 10:59:00,
2013-02-17 06:04:00,15.3,3.4,29.83,West,270,1.6,2.7,59,0.00,,,0.00,WUHU216HW,2013-02-17 11:04:00,
2013-02-17 06:09:00,15.3,3.4,29.84,NNE,23,0.9,1.6,59,0.00,,,0.00,WUHU216HW,2013-02-17 11:09:00,
2013-02-17 06:14:00,15.3,3.9,29.83,NNE,23,0.2,1.6,60,0.00,,,0.00,WUHU216HW,2013-02-17 11:14:00,
2013-02-17 06:19:00,15.3,3.4,29.83,SW,225,1.3,1.6,59,0.00,,,0.00,WUHU216HW,2013-02-17 11:19:00,
2013-02-17 06:24:00,15.5,3.6,29.84,NE,45,0.7,1.3,59,0.00,,,0.00,WUHU216HW,2013-02-17 11:24:00,
2013-02-17 06:29:00,15.5,3.6,29.83,NW,315,0.4,1.3,59,0.00,,,0.00,WUHU216HW,2013-02-17 11:29:00,
2013-02-17 06:34:00,15.5,3.6,29.83,NNW,338,1.1,1.3,59,0.00,,,0.00,WUHU216HW,2013-02-17 11:34:00,
2013-02-17 06:39:00,15.5,3.6,29.83,North,0,0.0,1.8,59,0.00,,,0.00,WUHU216HW,2013-02-17 11:39:00,
2013-02-17 06:44:00,15.5,3.6,29.81,NE,45,0.4,1.8,59,0.00,,,0.00,WUHU216HW,2013-02-17 11:44:00,
2013-02-17 06:49:00,15.5,3.6,29.87,North,0,0.4,1.1,59,0.00,,,0.00,WUHU216HW,2013-02-17 11:49:00,
2013-02-17 06:54:00,15.5,3.6,29.88,West,270,0.7,1.3,59,0.00,,,0.00,WUHU216HW,2013-02-17 11:54:00,
2013-02-17 06:59:00,15.7,3.8,29.88,NNE,23,0.9,1.3,59,0.00,,,0.00,WUHU216HW,2013-02-17 11:59:00,
2013-02-17 07:05:00,15.8,4.0,29.88,NE,45,0.7,2.0,59,0.00,,,0.00,WUHU216HW,2013-02-17 12:05:00,
2013-02-17 07:10:00,15.8,4.0,29.88,West,270,0.4,2.0,59,0.00,,,0.00,WUHU216HW,2013-02-17 12:10:00,
2013-02-17 07:15:00,15.8,4.0,29.89,North,0,0.4,1.8,59,0.00,,,0.00,WUHU216HW,2013-02-17 12:15:00,
2013-02-17 07:20:00,16.0,4.2,29.88,North,0,1.8,1.8,59,0.00,,,0.00,WUHU216HW,2013-02-17 12:20:00,
2013-02-17 07:25:00,16.0,4.2,29.88,West,270,1.6,1.8,59,0.00,,,0.00,WUHU216HW,2013-02-17 12:25:00,
2013-02-17 07:30:00,16.0,4.2,29.88,North,0,0.4,2.2,59,0.00,,,0.00,WUHU216HW,2013-02-17 12:30:00,
2013-02-17 07:35:00,16.0,4.2,29.88,NW,315,0.4,2.2,59,0.00,,,0.00,WUHU216HW,2013-02-17 12:35:00,
2013-02-17 07:40:00,16.2,4.0,29.89,WSW,248,1.8,3.4,58,0.00,,,0.00,WUHU216HW,2013-02-17 12:40:00,
2013-02-17 07:45:00,16.2,4.3,29.89,NW,315,0.9,3.4,59,0.00,,,0.00,WUHU216HW,2013-02-17 12:45:00,
2013-02-17 07:50:00,16.2,4.3,29.90,NNE,23,0.4,1.1,59,0.00,,,0.00,WUHU216HW,2013-02-17 12:50:00,
2013-02-17 07:55:00,16.4,4.5,29.90,ESE,113,1.8,1.8,59,0.00,,,0.00,WUHU216HW,2013-02-17 12:55:00,
2013-02-17 08:00:00,16.6,4.7,29.90,NNE,23,0.4,1.8,59,0.00,,,0.00,WUHU216HW,2013-02-17 13:00:00,
2013-02-17 08:05:00,16.6,4.7,29.90,West,270,1.1,1.6,59,0.00,,,0.00,WUHU216HW,2013-02-17 13:05:00,
2013-02-17 08:10:00,16.7,4.9,29.90,North,0,0.4,1.6,59,0.00,,,0.00,WUHU216HW,2013-02-17 13:10:00,
2013-02-17 08:15:00,16.9,5.1,29.91,WNW,293,2.0,2.5,59,0.00,,,0.00,WUHU216HW,2013-02-17 13:15:00,
2013-02-17 08:20:00,16.9,4.6,29.91,NNW,338,0.2,2.5,58,0.00,,,0.00,WUHU216HW,2013-02-17 13:20:00,
2013-02-17 08:25:00,17.1,5.2,29.90,NNW,338,0.7,2.0,59,0.00,,,0.00,WUHU216HW,2013-02-17 13:25:00,
2013-02-17 08:30:00,17.1,4.8,29.90,WSW,248,0.4,0.7,58,0.00,,,0.00,WUHU216HW,2013-02-17 13:30:00,
2013-02-17 08:35:00,17.5,5.1,29.91,NW,315,0.4,1.3,58,0.00,,,0.00,WUHU216HW,2013-02-17 13:35:00,
2013-02-17 08:40:00,17.6,5.0,29.91,East,90,0.7,1.3,57,0.00,,,0.00,WUHU216HW,2013-02-17 13:40:00,
2013-02-17 08:45:00,17.6,5.3,29.91,SE,135,1.6,1.6,58,0.00,,,0.00,WUHU216HW,2013-02-17 13:45:00,
2013-02-17 08:50:00,17.8,4.7,29.91,ENE,68,1.1,1.8,56,0.00,,,0.00,WUHU216HW,2013-02-17 13:50:00,
2013-02-17 08:55:00,18.0,4.9,29.92,West,270,2.2,2.2,56,0.00,,,0.00,WUHU216HW,2013-02-17 13:55:00,
2013-02-17 09:00:00,18.2,5.1,29.92,NNW,338,0.4,2.2,56,0.00,,,0.00,WUHU216HW,2013-02-17 14:00:00,
2013-02-17 09:05:00,18.4,5.2,29.92,WNW,293,0.9,4.3,56,0.00,,,0.00,WUHU216HW,2013-02-17 14:05:00,
2013-02-17 09:10:00,18.5,5.3,29.93,NE,45,1.1,4.3,56,0.00,,,0.00,WUHU216HW,2013-02-17 14:10:00,
2013-02-17 09:15:00,18.9,5.3,29.92,NNE,23,0.4,1.1,55,0.00,,,0.00,WUHU216HW,2013-02-17 14:15:00,
2013-02-17 09:20:00,18.9,4.9,29.92,ESE,113,0.7,1.8,54,0.00,,,0.00,WUHU216HW,2013-02-17 14:20:00,
2013-02-17 09:25:00,19.1,5.0,29.91,ENE,68,2.0,2.0,54,0.00,,,0.00,WUHU216HW,2013-02-17 14:25:00,
2013-02-17 09:30:00,19.3,5.2,29.92,NW,315,1.3,2.5,54,0.00,,,0.00,WUHU216HW,2013-02-17 14:30:00,
2013-02-17 09:35:00,19.4,5.0,29.92,West,270,0.7,2.5,53,0.00,,,0.00,WUHU216HW,2013-02-17 14:35:00,
2013-02-17 09:40:00,19.8,5.3,29.92,ENE,68,0.9,1.6,53,0.00,,,0.00,WUHU216HW,2013-02-17 14:40:00,
2013-02-17 09:45:00,19.8,4.5,29.93,WSW,248,2.5,2.5,51,0.00,,,0.00,WUHU216HW,2013-02-17 14:45:00,
2013-02-17 09:50:00,20.0,4.2,29.93,ENE,68,2.5,2.5,50,0.00,,,0.00,WUHU216HW,2013-02-17 14:50:00,
2013-02-17 09:55:00,20.2,4.4,29.93,NNE,23,0.9,2.5,50,0.00,,,0.00,WUHU216HW,2013-02-17 14:55:00,
2013-02-17 10:00:00,20.5,4.8,29.93,NNE,23,1.1,2.2,50,0.00,,,0.00,WUHU216HW,2013-02-17 15:00:00,
2013-02-17 10:05:00,20.5,3.8,29.93,East,90,0.7,2.2,48,0.00,,,0.00,WUHU216HW,2013-02-17 15:05:00,
2013-02-17 10:10:00,20.7,4.0,29.92,WNW,293,2.0,2.0,48,0.00,,,0.00,WUHU216HW,2013-02-17 15:10:00,
2013-02-17 10:15:00,20.9,4.1,29.93,ENE,68,0.7,2.2,48,0.00,,,0.00,WUHU216HW,2013-02-17 15:15:00,
2013-02-17 10:20:00,21.2,4.5,29.94,NNE,23,0.7,5.4,48,0.00,,,0.00,WUHU216HW,2013-02-17 15:20:00,
2013-02-17 10:25:00,21.2,3.5,29.94,NNE,23,1.6,5.4,46,0.00,,,0.00,WUHU216HW,2013-02-17 15:25:00,
2013-02-17 10:30:00,21.4,4.1,29.94,NNW,338,0.4,1.6,47,0.00,,,0.00,WUHU216HW,2013-02-17 15:30:00,
2013-02-17 10:35:00,21.8,4.1,29.95,WNW,293,1.1,1.8,46,0.00,,,0.00,WUHU216HW,2013-02-17 15:35:00,
2013-02-17 10:40:00,22.0,3.8,29.95,North,0,0.7,1.8,45,0.00,,,0.00,WUHU216HW,2013-02-17 15:40:00,
2013-02-17 10:45:00,22.7,5.0,29.95,NNE,23,1.3,1.3,46,0.00,,,0.00,WUHU216HW,2013-02-17 15:45:00,
2013-02-17 10:50:00,23.4,5.1,29.96,NNW,338,1.1,2.5,45,0.00,,,0.00,WUHU216HW,2013-02-17 15:50:00,
2013-02-17 10:55:00,23.2,4.4,29.96,NE,45,0.4,2.5,44,0.00,,,0.00,WUHU216HW,2013-02-17 15:55:00,
2013-02-17 11:00:00,23.4,4.6,29.95,ENE,68,1.6,2.9,44,0.00,,,0.00,WUHU216HW,2013-02-17 16:00:00,
2013-02-17 11:05:00,23.6,4.8,29.96,WNW,293,0.7,2.9,44,0.00,,,0.00,WUHU216HW,2013-02-17 16:05:00,
2013-02-17 11:10:00,23.9,5.1,29.97,East,90,0.7,1.3,44,0.00,,,0.00,WUHU216HW,2013-02-17 16:10:00,
2013-02-17 11:15:00,23.8,5.0,29.96,SW,225,0.4,1.8,44,0.00,,,0.00,WUHU216HW,2013-02-17 16:15:00,
2013-02-17 11:20:00,23.9,5.1,29.96,NNE,23,1.1,1.8,44,0.00,,,0.00,WUHU216HW,2013-02-17 16:20:00,
2013-02-17 11:25:00,24.1,5.2,29.97,South,180,0.7,1.8,44,0.00,,,0.00,WUHU216HW,2013-02-17 16:25:00,
2013-02-17 11:30:00,24.3,5.0,29.97,NNE,23,2.0,2.0,43,0.00,,,0.00,WUHU216HW,2013-02-17 16:30:00,
2013-02-17 11:35:00,24.7,5.8,29.97,East,90,0.4,2.0,44,0.00,,,0.00,WUHU216HW,2013-02-17 16:35:00,
2013-02-17 11:40:00,25.0,5.1,29.97,ESE,113,0.9,1.6,42,0.00,,,0.00,WUHU216HW,2013-02-17 16:40:00,
2013-02-17 11:45:00,25.4,5.0,29.96,ESE,113,0.7,4.0,41,0.00,,,0.00,WUHU216HW,2013-02-17 16:45:00,
2013-02-17 11:50:00,25.6,4.0,29.97,East,90,1.1,4.0,39,0.00,,,0.00,WUHU216HW,2013-02-17 16:50:00,
2013-02-17 11:55:00,25.6,4.0,29.96,ESE,113,0.4,2.2,39,0.00,,,0.00,WUHU216HW,2013-02-17 16:55:00,
2013-02-17 12:00:00,26.1,5.1,29.97,NNE,23,0.4,1.8,40,0.00,,,0.00,WUHU216HW,2013-02-17 17:00:00,
2013-02-17 12:05:00,26.3,4.0,29.97,ENE,68,0.7,1.8,38,0.00,,,0.00,WUHU216HW,2013-02-17 17:05:00,
2013-02-17 12:10:00,26.1,3.3,29.97,North,0,0.7,1.8,37,0.00,,,0.00,WUHU216HW,2013-02-17 17:10:00,
2013-02-17 12:15:00,26.3,2.2,29.97,NW,315,1.3,2.0,35,0.00,,,0.00,WUHU216HW,2013-02-17 17:15:00,
2013-02-17 12:20:00,26.1,2.6,29.97,NW,315,0.7,2.0,36,0.00,,,0.00,WUHU216HW,2013-02-17 17:20:00,
2013-02-17 12:25:00,26.3,2.8,29.97,ENE,68,0.4,1.8,36,0.00,,,0.00,WUHU216HW,2013-02-17 17:25:00,
2013-02-17 12:30:00,26.6,3.1,29.97,WNW,293,0.2,1.8,36,0.00,,,0.00,WUHU216HW,2013-02-17 17:30:00,
2013-02-17 12:35:00,27.4,4.3,29.97,North,0,1.6,1.6,37,0.00,,,0.00,WUHU216HW,2013-02-17 17:35:00,
2013-02-17 12:40:00,27.5,4.5,29.97,WNW,293,1.1,1.6,37,0.00,,,0.00,WUHU216HW,2013-02-17 17:40:00,
2013-02-17 12:45:00,28.1,6.2,29.97,NNW,338,1.1,1.6,39,0.00,,,0.00,WUHU216HW,2013-02-17 17:45:00,
2013-02-17 12:50:00,28.6,5.5,29.97,North,0,0.2,1.3,37,0.00,,,0.00,WUHU216HW,2013-02-17 17:50:00,
2013-02-17 12:55:00,29.5,6.9,29.96,SSW,203,0.4,1.1,38,0.00,,,0.00,WUHU216HW,2013-02-17 17:55:00,
2013-02-17 13:00:00,30.2,6.9,29.97,NW,315,2.0,2.0,37,0.00,,,0.00,WUHU216HW,2013-02-17 18:00:00,
2013-02-17 13:05:00,30.6,7.3,29.97,NNE,23,1.1,2.0,37,0.00,,,0.00,WUHU216HW,2013-02-17 18:05:00,
2013-02-17 13:10:00,31.3,7.9,29.96,NW,315,0.7,1.6,37,0.00,,,0.00,WUHU216HW,2013-02-17 18:10:00,
2013-02-17 13:15:00,32.2,8.7,29.97,NNW,338,0.4,2.9,37,0.00,,,0.00,WUHU216HW,2013-02-17 18:15:00,
2013-02-17 13:20:00,34.2,10.4,29.96,North,0,0.4,2.9,37,0.00,,,0.00,WUHU216HW,2013-02-17 18:20:00,
2013-02-17 13:25:00,34.2,9.8,29.95,WNW,293,0.9,0.9,36,0.00,,,0.00,WUHU216HW,2013-02-17 18:25:00,
2013-02-17 13:30:00,34.2,7.9,29.95,NW,315,1.1,3.8,33,0.00,,,0.00,WUHU216HW,2013-02-17 18:30:00,
2013-02-17 13:35:00,32.9,6.8,29.96,NW,315,1.1,3.8,33,0.00,,,0.00,WUHU216HW,2013-02-17 18:35:00,
2013-02-17 13:40:00,31.5,5.6,29.96,North,0,0.7,1.8,33,0.00,,,0.00,WUHU216HW,2013-02-17 18:40:00,
2013-02-17 13:45:00,30.8,6.1,29.97,West,270,0.4,1.6,35,0.00,,,0.00,WUHU216HW,2013-02-17 18:45:00,
2013-02-17 13:50:00,31.7,6.9,29.97,NNE,23,0.7,1.1,35,0.00,,,0.00,WUHU216HW,2013-02-17 18:50:00,
2013-02-17 13:55:00,32.0,7.3,29.96,West,270,4.7,4.7,35,0.00,,,0.00,WUHU216HW,2013-02-17 18:55:00,
2013-02-17 14:00:00,31.5,6.2,29.96,NE,45,0.7,4.7,34,0.00,,,0.00,WUHU216HW,2013-02-17 19:00:00,
2013-02-17 14:05:00,31.9,7.1,29.96,NW,315,0.7,2.5,35,0.00,,,0.00,WUHU216HW,2013-02-17 19:05:00,
2013-02-17 14:10:00,33.1,6.4,29.96,WNW,293,1.8,2.5,32,0.00,,,0.00,WUHU216HW,2013-02-17 19:10:00,
2013-02-17 14:15:00,31.7,5.7,29.96,NNE,23,0.7,5.4,33,0.00,,,0.00,WUHU216HW,2013-02-17 19:15:00,
2013-02-17 14:20:00,32.2,7.5,29.97,North,0,0.2,5.4,35,0.00,,,0.00,WUHU216HW,2013-02-17 19:20:00,
2013-02-17 14:25:00,32.6,7.7,29.96,NW,315,0.9,2.5,35,0.00,,,0.00,WUHU216HW,2013-02-17 19:25:00,
2013-02-17 14:30:00,32.9,6.8,29.97,NW,315,0.4,2.5,33,0.00,,,0.00,WUHU216HW,2013-02-17 19:30:00,
2013-02-17 14:35:00,31.9,6.5,29.97,NNW,338,0.9,2.9,34,0.00,,,0.00,WUHU216HW,2013-02-17 19:35:00,
2013-02-17 14:40:00,32.0,6.7,29.96,NE,45,0.7,4.0,34,0.00,,,0.00,WUHU216HW,2013-02-17 19:40:00,
2013-02-17 14:45:00,32.8,6.7,29.96,WNW,293,0.7,4.0,33,0.00,,,0.00,WUHU216HW,2013-02-17 19:45:00,
2013-02-17 14:50:00,32.6,7.7,29.95,NNE,23,0.4,1.8,35,0.00,,,0.00,WUHU216HW,2013-02-17 19:50:00,
2013-02-17 14:55:00,33.5,7.3,29.97,NE,45,0.7,1.3,33,0.00,,,0.00,WUHU216HW,2013-02-17 19:55:00,
2013-02-17 15:00:00,33.8,7.7,29.96,ESE,113,0.4,1.3,33,0.00,,,0.00,WUHU216HW,2013-02-17 20:00:00,
2013-02-17 15:05:00,34.9,8.6,29.97,North,0,0.9,1.3,33,0.00,,,0.00,WUHU216HW,2013-02-17 20:05:00,
2013-02-17 15:10:00,34.4,8.1,29.96,North,0,0.7,1.8,33,0.00,,,0.00,WUHU216HW,2013-02-17 20:10:00,
2013-02-17 15:15:00,33.5,7.3,29.98,NNW,338,0.4,1.8,33,0.00,,,0.00,WUHU216HW,2013-02-17 20:15:00,
2013-02-17 15:20:00,32.6,6.5,29.97,West,270,2.5,2.5,33,0.00,,,0.00,WUHU216HW,2013-02-17 20:20:00,
2013-02-17 15:25:00,31.9,5.9,29.97,East,90,0.7,2.7,33,0.00,,,0.00,WUHU216HW,2013-02-17 20:25:00,
2013-02-17 15:30:00,32.0,7.3,29.97,NNW,338,0.2,2.7,35,0.00,,,0.00,WUHU216HW,2013-02-17 20:30:00,
2013-02-17 15:35:00,32.8,6.7,29.98,West,270,0.9,2.2,33,0.00,,,0.00,WUHU216HW,2013-02-17 20:35:00,
2013-02-17 15:40:00,33.1,8.3,29.97,SE,135,0.4,1.3,35,0.00,,,0.00,WUHU216HW,2013-02-17 20:40:00,
2013-02-17 15:45:00,34.6,9.6,29.97,NE,45,0.4,1.3,35,0.00,,,0.00,WUHU216HW,2013-02-17 20:45:00,
2013-02-17 15:50:00,35.6,9.2,29.98,WNW,293,0.4,1.1,33,0.00,,,0.00,WUHU216HW,2013-02-17 20:50:00,
2013-02-17 15:55:00,35.5,8.4,29.97,NE,45,0.4,1.1,32,0.00,,,0.00,WUHU216HW,2013-02-17 20:55:00,
2013-02-17 16:00:00,35.3,7.6,29.97,West,270,2.0,2.0,31,0.00,,,0.00,WUHU216HW,2013-02-17 21:00:00,
2013-02-17 16:05:00,33.8,7.0,29.98,WNW,293,0.7,2.5,32,0.00,,,0.00,WUHU216HW,2013-02-17 21:05:00,
2013-02-17 16:10:00,32.8,6.7,29.99,NW,315,0.4,2.5,33,0.00,,,0.00,WUHU216HW,2013-02-17 21:10:00,
2013-02-17 16:15:00,32.9,7.5,29.99,NNE,23,0.4,1.8,34,0.00,,,0.00,WUHU216HW,2013-02-17 21:15:00,
2013-02-17 16:20:00,32.9,8.1,29.99,West,270,0.7,1.3,35,0.00,,,0.00,WUHU216HW,2013-02-17 21:20:00,
2013-02-17 16:25:00,33.1,8.3,29.99,WNW,293,0.2,1.3,35,0.00,,,0.00,WUHU216HW,2013-02-17 21:25:00,
2013-02-17 16:30:00,32.4,7.0,29.98,WNW,293,1.1,2.2,34,0.00,,,0.00,WUHU216HW,2013-02-17 21:30:00,
2013-02-17 16:35:00,32.0,7.9,29.99,NW,315,0.4,2.2,36,0.00,,,0.00,WUHU216HW,2013-02-17 21:35:00,
2013-02-17 16:40:00,32.2,7.5,29.99,ENE,68,0.4,1.8,35,0.00,,,0.00,WUHU216HW,2013-02-17 21:40:00,
2013-02-17 16:45:00,32.0,7.3,29.99,WNW,293,0.7,1.8,35,0.00,,,0.00,WUHU216HW,2013-02-17 21:45:00,
2013-02-17 16:50:00,32.0,7.9,29.99,NW,315,0.4,1.8,36,0.00,,,0.00,WUHU216HW,2013-02-17 21:50:00,
2013-02-17 16:55:00,31.9,7.7,29.99,NNE,23,0.7,2.7,36,0.00,,,0.00,WUHU216HW,2013-02-17 21:55:00,
2013-02-17 17:00:00,31.7,6.9,29.99,NNW,338,0.9,2.7,35,0.00,,,0.00,WUHU216HW,2013-02-17 22:00:00,
2013-02-17 17:05:00,31.5,6.9,29.99,SE,135,0.4,1.3,35,0.00,,,0.00,WUHU216HW,2013-02-17 22:05:00,
2013-02-17 17:10:00,31.9,8.4,29.99,SW,225,0.4,1.1,37,0.00,,,0.00,WUHU216HW,2013-02-17 22:10:00,
2013-02-17 17:15:00,31.7,7.6,29.99,NE,45,0.7,3.1,36,0.00,,,0.00,WUHU216HW,2013-02-17 22:15:00,
2013-02-17 17:20:00,32.4,8.9,29.99,NNW,338,0.4,3.1,37,0.00,,,0.00,WUHU216HW,2013-02-17 22:20:00,
2013-02-17 17:25:00,32.6,8.4,30.00,WNW,293,0.0,1.1,36,0.00,,,0.00,WUHU216HW,2013-02-17 22:25:00,
2013-02-17 17:30:00,32.2,8.1,30.00,ESE,113,0.9,1.1,36,0.00,,,0.00,WUHU216HW,2013-02-17 22:30:00,
2013-02-17 17:35:00,31.7,7.6,30.00,NW,315,0.4,1.1,36,0.00,,,0.00,WUHU216HW,2013-02-17 22:35:00,
2013-02-17 17:40:00,31.3,7.9,30.02,West,270,0.4,2.5,37,0.00,,,0.00,WUHU216HW,2013-02-17 22:40:00,
2013-02-17 17:45:00,30.6,7.3,30.01,NW,315,0.0,2.5,37,0.00,,,0.00,WUHU216HW,2013-02-17 22:45:00,
2013-02-17 17:50:00,30.1,6.8,30.02,NNW,338,0.0,1.3,37,0.00,,,0.00,WUHU216HW,2013-02-17 22:50:00,
2013-02-17 17:55:00,29.7,6.5,30.02,NE,45,0.4,1.1,37,0.00,,,0.00,WUHU216HW,2013-02-17 22:55:00,
2013-02-17 18:00:00,29.3,6.8,30.02,NW,315,0.2,1.1,38,0.00,,,0.00,WUHU216HW,2013-02-17 23:00:00,
2013-02-17 18:05:00,29.2,7.2,30.02,NNW,338,0.0,1.1,39,0.00,,,0.00,WUHU216HW,2013-02-17 23:05:00,
2013-02-17 18:10:00,28.8,6.9,30.02,NW,315,0.2,0.7,39,0.00,,,0.00,WUHU216HW,2013-02-17 23:10:00,
2013-02-17 18:15:00,28.4,6.6,30.02,NNW,338,0.0,0.7,39,0.00,,,0.00,WUHU216HW,2013-02-17 23:15:00,
2013-02-17 18:21:00,28.3,7.0,30.02,NW,315,0.0,1.1,40,0.00,,,0.00,WUHU216HW,2013-02-17 23:21:00,
2013-02-17 18:26:00,28.1,6.8,30.02,West,270,0.0,1.3,40,0.00,,,0.00,WUHU216HW,2013-02-17 23:26:00,
2013-02-17 18:31:00,27.9,7.2,30.03,West,270,0.9,1.3,41,0.00,,,0.00,WUHU216HW,2013-02-17 23:31:00,
2013-02-17 18:36:00,27.7,7.0,30.03,West,270,0.7,0.9,41,0.00,,,0.00,WUHU216HW,2013-02-17 23:36:00,
2013-02-17 18:41:00,27.5,7.4,30.03,NW,315,1.6,1.6,42,0.00,,,0.00,WUHU216HW,2013-02-17 23:41:00,
2013-02-17 18:46:00,27.4,7.2,30.04,WNW,293,0.4,1.6,42,0.00,,,0.00,WUHU216HW,2013-02-17 23:46:00,
2013-02-17 18:51:00,27.2,7.6,30.03,West,270,1.1,1.1,43,0.00,,,0.00,WUHU216HW,2013-02-17 23:51:00,
2013-02-17 18:56:00,27.0,7.4,30.03,SE,135,0.0,1.3,43,0.00,,,0.00,WUHU216HW,2013-02-17 23:56:00,
2013-02-17 19:01:00,27.0,7.4,30.04,West,270,0.0,1.3,43,0.00,,,0.00,WUHU216HW,2013-02-18 00:01:00,
2013-02-17 19:06:00,26.8,7.2,30.03,West,270,0.0,0.4,43,0.00,,,0.00,WUHU216HW,2013-02-18 00:06:00,
2013-02-17 19:11:00,26.8,7.7,30.04,WNW,293,0.4,1.1,44,0.00,,,0.00,WUHU216HW,2013-02-18 00:11:00,
2013-02-17 19:16:00,26.6,7.6,30.04,WNW,293,0.4,1.1,44,0.00,,,0.00,WUHU216HW,2013-02-18 00:16:00,
2013-02-17 19:21:00,26.6,7.6,30.04,WNW,293,0.0,0.7,44,0.00,,,0.00,WUHU216HW,2013-02-18 00:21:00,
2013-02-17 19:26:00,26.5,7.8,30.04,NNE,23,0.0,1.1,45,0.00,,,0.00,WUHU216HW,2013-02-18 00:26:00,
2013-02-17 19:31:00,26.5,7.8,30.05,WNW,293,0.0,1.1,45,0.00,,,0.00,WUHU216HW,2013-02-18 00:31:00,
2013-02-17 19:36:00,26.3,7.7,30.05,WNW,293,0.2,0.4,45,0.00,,,0.00,WUHU216HW,2013-02-18 00:36:00,
2013-02-17 19:41:00,26.3,7.7,30.05,WNW,293,0.0,0.2,45,0.00,,,0.00,WUHU216HW,2013-02-18 00:41:00,
2013-02-17 19:46:00,26.1,7.6,30.04,West,270,1.1,1.1,45,0.00,,,0.00,WUHU216HW,2013-02-18 00:46:00,
2013-02-17 19:51:00,25.9,7.8,30.04,South,180,0.0,1.1,46,0.00,,,0.00,WUHU216HW,2013-02-18 00:51:00,
2013-02-17 19:56:00,25.9,7.8,30.05,South,180,0.0,0.2,46,0.00,,,0.00,WUHU216HW,2013-02-18 00:56:00,
2013-02-17 20:01:00,25.9,7.8,30.04,South,180,0.0,0.4,46,0.00,,,0.00,WUHU216HW,2013-02-18 01:01:00,
2013-02-17 20:06:00,25.7,7.7,30.04,SW,225,0.0,0.4,46,0.00,,,0.00,WUHU216HW,2013-02-18 01:06:00,
2013-02-17 20:11:00,25.7,8.2,30.01,NW,315,0.0,0.2,47,0.00,,,0.00,WUHU216HW,2013-02-18 01:11:00,
2013-02-17 20:16:00,25.7,8.2,30.01,NW,315,0.0,0.2,47,0.00,,,0.00,WUHU216HW,2013-02-18 01:16:00,
2013-02-17 20:21:00,25.6,8.0,30.00,West,270,0.0,0.4,47,0.00,,,0.00,WUHU216HW,2013-02-18 01:21:00,
2013-02-17 20:26:00,25.6,8.0,30.00,SSE,158,0.0,0.4,47,0.00,,,0.00,WUHU216HW,2013-02-18 01:26:00,
2013-02-17 20:31:00,25.4,7.8,30.01,SSE,158,0.0,0.4,47,0.00,,,0.00,WUHU216HW,2013-02-18 01:31:00,
2013-02-17 20:36:00,25.4,7.8,30.00,SSE,158,0.0,0.0,47,0.00,,,0.00,WUHU216HW,2013-02-18 01:36:00,
2013-02-17 20:41:00,25.4,7.8,30.01,WNW,293,0.0,0.0,47,0.00,,,0.00,WUHU216HW,2013-02-18 01:41:00,
2013-02-17 20:46:00,25.4,8.4,30.01,WNW,293,0.0,0.4,48,0.00,,,0.00,WUHU216HW,2013-02-18 01:46:00,
2013-02-17 20:51:00,25.4,8.4,30.01,WNW,293,0.0,0.4,48,0.00,,,0.00,WUHU216HW,2013-02-18 01:51:00,
2013-02-17 20:56:00,25.2,8.2,30.00,WNW,293,0.0,0.0,48,0.00,,,0.00,WUHU216HW,2013-02-18 01:56:00,
2013-02-17 21:01:00,25.2,8.2,30.02,ESE,113,0.4,0.4,48,0.00,,,0.00,WUHU216HW,2013-02-18 02:01:00,
2013-02-17 21:06:00,25.2,8.2,30.01,ESE,113,0.4,0.4,48,0.00,,,0.00,WUHU216HW,2013-02-18 02:06:00,
2013-02-17 21:11:00,25.0,8.0,30.02,SE,135,0.0,0.4,48,0.00,,,0.00,WUHU216HW,2013-02-18 02:11:00,
2013-02-17 21:16:00,24.8,7.8,30.02,SE,135,0.0,0.2,48,0.00,,,0.00,WUHU216HW,2013-02-18 02:16:00,
2013-02-17 21:21:00,24.8,7.8,30.02,SE,135,0.0,0.0,48,0.00,,,0.00,WUHU216HW,2013-02-18 02:21:00,
2013-02-17 21:26:00,24.7,7.7,30.02,SE,135,0.0,0.0,48,0.00,,,0.00,WUHU216HW,2013-02-18 02:26:00,
2013-02-17 21:31:00,24.5,7.6,30.02,SE,135,0.0,0.7,48,0.00,,,0.00,WUHU216HW,2013-02-18 02:31:00,
2013-02-17 21:36:00,24.3,7.8,30.03,SE,135,0.0,0.7,49,0.00,,,0.00,WUHU216HW,2013-02-18 02:36:00,
2013-02-17 21:41:00,24.3,8.4,30.02,SE,135,0.0,0.0,50,0.00,,,0.00,WUHU216HW,2013-02-18 02:41:00,
2013-02-17 21:46:00,24.1,8.2,30.02,SE,135,0.0,0.0,50,0.00,,,0.00,WUHU216HW,2013-02-18 02:46:00,
2013-02-17 21:51:00,23.9,8.4,30.02,SE,135,0.0,0.4,51,0.00,,,0.00,WUHU216HW,2013-02-18 02:51:00,
2013-02-17 21:56:00,23.6,8.1,30.02,SE,135,0.0,1.1,51,0.00,,,0.00,WUHU216HW,2013-02-18 02:56:00,
2013-02-17 22:01:00,23.4,8.7,30.03,SSE,158,0.0,1.1,53,0.00,,,0.00,WUHU216HW,2013-02-18 03:01:00,
2013-02-17 22:06:00,23.4,8.3,30.08,SE,135,0.4,0.7,52,0.00,,,0.00,WUHU216HW,2013-02-18 03:06:00,
2013-02-17 22:11:00,23.2,8.2,30.07,SE,135,0.0,0.7,52,0.00,,,0.00,WUHU216HW,2013-02-18 03:11:00,
2013-02-17 22:16:00,23.2,8.6,30.07,SE,135,0.2,0.7,53,0.00,,,0.00,WUHU216HW,2013-02-18 03:16:00,
2013-02-17 22:21:00,23.0,8.4,30.07,SE,135,0.0,0.2,53,0.00,,,0.00,WUHU216HW,2013-02-18 03:21:00,
2013-02-17 22:26:00,23.0,8.8,30.06,SE,135,0.0,0.2,54,0.00,,,0.00,WUHU216HW,2013-02-18 03:26:00,
2013-02-17 22:31:00,22.7,8.5,30.07,SE,135,0.2,0.7,54,0.00,,,0.00,WUHU216HW,2013-02-18 03:31:00,
2013-02-17 22:36:00,22.7,8.8,30.07,SSW,203,0.4,1.8,55,0.00,,,0.00,WUHU216HW,2013-02-18 03:36:00,
2013-02-17 22:41:00,22.7,8.8,30.08,SSE,158,0.0,1.8,55,0.00,,,0.00,WUHU216HW,2013-02-18 03:41:00,
2013-02-17 22:46:00,22.5,8.6,30.07,South,180,0.0,0.0,55,0.00,,,0.00,WUHU216HW,2013-02-18 03:46:00,
2013-02-17 22:51:00,22.5,9.5,30.07,SSE,158,0.4,0.4,57,0.00,,,0.00,WUHU216HW,2013-02-18 03:51:00,
2013-02-17 22:56:00,22.3,8.9,30.07,SSE,158,0.0,0.4,56,0.00,,,0.00,WUHU216HW,2013-02-18 03:56:00,
2013-02-17 23:01:00,22.5,9.1,30.07,SSW,203,0.0,0.4,56,0.00,,,0.00,WUHU216HW,2013-02-18 04:01:00,
2013-02-17 23:06:00,22.3,8.9,30.07,SE,135,0.9,0.9,56,0.00,,,0.00,WUHU216HW,2013-02-18 04:06:00,
2013-02-17 23:11:00,22.5,9.1,30.07,South,180,0.0,0.9,56,0.00,,,0.00,WUHU216HW,2013-02-18 04:11:00,
2013-02-17 23:16:00,22.3,8.9,30.07,SE,135,0.0,0.7,56,0.00,,,0.00,WUHU216HW,2013-02-18 04:16:00,
2013-02-17 23:21:00,22.3,8.9,30.06,SE,135,0.4,1.1,56,0.00,,,0.00,WUHU216HW,2013-02-18 04:21:00,
2013-02-17 23:26:00,22.5,9.1,30.06,SE,135,0.0,1.1,56,0.00,,,0.00,WUHU216HW,2013-02-18 04:26:00,
2013-02-17 23:31:00,22.7,9.3,30.05,SE,135,0.0,0.7,56,0.00,,,0.00,WUHU216HW,2013-02-18 04:31:00,
2013-02-17 23:36:00,22.9,9.5,30.06,SE,135,0.0,1.1,56,0.00,,,0.00,WUHU216HW,2013-02-18 04:36:00,
2013-02-17 23:41:00,22.9,9.5,30.07,SE,135,0.0,1.1,56,0.00,,,0.00,WUHU216HW,2013-02-18 04:41:00,
2013-02-17 23:46:00,23.0,9.5,30.08,SE,135,0.4,0.9,56,0.00,,,0.00,WUHU216HW,2013-02-18 04:46:00,
2013-02-17 23:51:00,23.2,9.7,30.07,SE,135,0.0,0.9,56,0.00,,,0.00,WUHU216HW,2013-02-18 04:51:00,
2013-02-17 23:56:00,23.2,10.2,30.07,SE,135,0.0,0.0,57,0.00,,,0.00,WUHU216HW,2013-02-18 04:56:00,